N1JFY Weather Reports


Display with metric or nautical units.
time (UTC)temp
F
wind
direction
speed
MPH
gust
MPH
rain 1hr
in
rain 24hr
in
rain mn
in
humidity
%
barometer
mb
20260510084603 45 174 2.0 8.0 0.00 0.03 0.03 94 1012.0
20260510083115 45 162 3.0 9.0 0.00 0.03 0.03 94 1012.2
20260510081613 45 178 3.0 8.0 0.00 0.03 0.03 94 1012.2
20260510080054 45 171 3.0 7.0 0.00 0.03 0.03 95 1012.2
20260510074554 45 144 1.0 7.0 0.00 0.03 0.03 95 1012.2
20260510073054 44 194 1.0 7.0 0.01 0.03 0.03 95 1012.2
20260510071550 44 157 2.0 6.0 0.01 0.03 0.03 95 1012.2
20260510070048 43 142 2.0 9.0 0.01 0.03 0.03 95 1012.1
20260510064549 43 155 2.0 6.0 0.02 0.03 0.03 95 1012.0
20260510063045 42 168 0.0 8.0 0.01 0.02 0.02 94 1012.1
20260510061552 42 146 1.0 4.0 0.01 0.02 0.02 94 1012.2
20260510060045 42 162 0.0 3.0 0.01 0.02 0.02 94 1012.5
20260510054538 41 152 0.0 3.0 0.01 0.01 0.01 93 1012.5
20260510053036 41 156 0.0 0.0 0.01 0.01 0.01 93 1012.6
20260510051541 41 149 0.0 0.0 0.01 0.01 0.01 93 1012.6
20260510050035 41 133 0.0 0.0 0.01 0.01 0.01 92 1012.6
20260510044534 41 119 0.0 0.0 0.00 0.00 0.00 92 1012.6
20260510043033 41 126 2.0 7.0 0.00 0.00 0.00 91 1012.6
20260510041535 41 167 0.0 3.0 0.00 0.00 0.00 91 1013.0
20260510040028 41 171 3.0 11.0 0.00 0.00 0.00 90 1013.0
20260510034528 41 165 3.0 11.0 0.00 0.00 0.00 88 1013.3
20260510033026 42 152 5.0 11.0 0.00 0.00 0.00 86 1013.4
20260510031526 42 131 8.0 13.0 0.00 0.00 0.00 84 1013.5
20260510030033 42 169 8.0 15.0 0.00 0.00 0.00 82 1013.7
20260510024533 43 148 7.0 13.0 0.00 0.00 0.00 81 1013.9
20260510023024 43 126 3.0 10.0 0.00 0.00 0.00 80 1014.0
20260510021532 43 159 7.0 12.0 0.00 0.00 0.00 79 1014.1
20260510020024 43 163 5.0 11.0 0.00 0.00 0.00 77 1014.2
20260510014523 44 140 7.0 12.0 0.00 0.00 0.00 75 1014.2
20260510013023 44 170 8.0 16.0 0.00 0.00 0.00 74 1014.4
20260510011522 44 199 7.0 14.0 0.00 0.00 0.00 72 1014.4
20260510010021 45 182 7.0 16.0 0.00 0.00 0.00 70 1014.2
20260510004519 45 168 6.0 12.0 0.00 0.00 0.00 66 1014.1
20260510003022 46 183 6.0 13.0 0.00 0.00 0.00 64 1013.9
20260510001516 47 151 8.0 14.0 0.00 0.00 0.00 62 1013.6
20260510000015 47 138 8.0 16.0 0.00 0.00 0.00 60 1013.4
20260509234527 48 193 7.0 11.0 0.00 0.00 0.00 56 1013.4
20260509233013 49 185 7.0 15.0 0.00 0.00 0.00 54 1013.2
20260509231514 50 194 8.0 15.0 0.00 0.00 0.00 51 1013.1
20260509230013 50 164 9.0 19.0 0.00 0.00 0.00 48 1012.8
20260509224512 51 190 6.0 18.0 0.00 0.00 0.00 46 1012.7
20260509223015 52 236 8.0 21.0 0.00 0.00 0.00 45 1012.5
20260509221513 53 178 5.0 24.0 0.00 0.00 0.00 43 1012.3
20260509220014 54 186 11.0 25.0 0.00 0.00 0.00 41 1012.1
20260509214510 55 251 5.0 17.0 0.00 0.00 0.00 40 1011.9
20260509213010 56 175 8.0 16.0 0.00 0.00 0.00 36 1011.9
20260509211509 56 173 4.0 15.0 0.00 0.00 0.00 35 1011.9
20260509210009 57 144 2.0 12.0 0.00 0.00 0.00 34 1011.9
20260509204507 56 144 7.0 15.0 0.00 0.00 0.00 36 1011.8
20260509203008 57 205 4.0 11.0 0.00 0.00 0.00 33 1011.9
20260509201506 56 219 3.0 13.0 0.00 0.00 0.00 36 1011.9
20260509200006 56 117 5.0 13.0 0.00 0.00 0.00 33 1011.9
20260509194505 56 179 3.0 17.0 0.00 0.00 0.00 35 1012.0
20260509193006 56 141 9.0 21.0 0.00 0.00 0.00 35 1012.1
20260509191506 56 243 2.0 12.0 0.00 0.00 0.00 36 1012.0
20260509190006 56 190 7.0 15.0 0.00 0.00 0.00 33 1012.2
20260509184502 56 155 0.0 12.0 0.00 0.00 0.00 35 1012.1
20260509183002 56 223 7.0 16.0 0.00 0.00 0.00 34 1012.3
20260509181501 57 217 3.0 12.0 0.00 0.00 0.00 37 1012.1
20260509180109 56 166 4.0 11.0 0.00 0.00 0.00 39 1012.3
20260509174554 55 232 5.0 18.0 0.00 0.00 0.00 39 1012.5
20260509173057 54 200 3.0 18.0 0.00 0.00 0.00 37 1012.6
20260509171556 55 195 3.0 17.0 0.00 0.00 0.00 41 1012.7
20260509170058 53 224 5.0 13.0 0.00 0.00 0.00 40 1012.8
20260509164549 53 221 7.0 13.0 0.00 0.00 0.00 40 1012.8
20260509163105 53 218 2.0 15.0 0.00 0.00 0.00 44 1012.9
20260509161547 53 225 10.0 17.0 0.00 0.00 0.00 42 1013.0
20260509160049 52 261 2.0 18.0 0.00 0.00 0.00 45 1013.0
20260509154547 53 232 8.0 15.0 0.00 0.00 0.00 42 1013.0
20260509153044 52 211 7.0 15.0 0.00 0.00 0.00 43 1013.0
20260509151547 52 207 3.0 12.0 0.00 0.00 0.00 44 1013.1
20260509150044 52 205 7.0 14.0 0.00 0.00 0.00 41 1013.1
20260509144544 52 193 5.0 11.0 0.00 0.00 0.00 48 1013.1
20260509143048 52 153 7.0 12.0 0.00 0.00 0.00 48 1013.1
20260509141543 52 215 1.0 7.0 0.00 0.00 0.00 51 1013.2
20260509140046 51 192 3.0 11.0 0.00 0.00 0.00 52 1013.2
20260509134536 51 189 4.0 10.0 0.00 0.00 0.00 50 1013.4
20260509133033 50 202 1.0 11.0 0.00 0.00 0.00 57 1013.2
20260509131537 50 216 1.0 8.0 0.00 0.00 0.00 52 1013.2
20260509130031 49 236 3.0 11.0 0.00 0.00 0.00 54 1013.0
20260509124534 49 217 5.0 10.0 0.00 0.00 0.00 53 1012.9
20260509123035 48 151 0.0 9.0 0.00 0.00 0.00 58 1012.8
20260509121522 48 184 0.0 8.0 0.00 0.00 0.00 54 1012.7
20260509120018 47 244 1.0 10.0 0.00 0.00 0.00 59 1012.7
20260509114517 46 199 1.0 7.0 0.00 0.00 0.00 61 1012.7
20260509113012 45 211 3.0 8.0 0.00 0.00 0.00 63 1012.6
20260509111507 42 215 0.0 0.0 0.00 0.00 0.00 74 1012.5
20260509110008 42 216 0.0 6.0 0.00 0.00 0.00 71 1012.4
20260509104511 40 229 0.0 1.0 0.00 0.00 0.00 72 1012.3
20260509103002 40 243 0.0 6.0 0.00 0.00 0.00 75 1012.1
20260509101502 39 246 3.0 8.0 0.00 0.00 0.00 75 1012.0
20260509100114 39 222 3.0 9.0 0.00 0.00 0.00 74 1011.7
20260509094604 38 219 1.0 7.0 0.00 0.00 0.00 76 1011.6
20260509093108 37 236 4.0 8.0 0.00 0.00 0.00 79 1011.4
20260509091605 36 240 5.0 10.0 0.00 0.00 0.00 82 1011.2
20260509090155 35 205 5.0 10.0 0.00 0.00 0.00 84 1011.2